| time (UTC) | temp C | wind direction | speed KPH | gust KPH | rain 1hr cm | rain 24hr cm | rain mn cm | humidity % | barometer mb |
| 20260506092432 | 13 | 20 | 12.9 | 33.8 | 0.00 | 0.00 | 0.00 | 77 | 1010.9 |
| 20260506091928 | 13 | 29 | 11.3 | 20.9 | 0.00 | 0.00 | 0.00 | 77 | 1010.6 |
| 20260506091426 | 13 | 336 | 22.5 | 29.0 | 0.00 | 0.00 | 0.00 | 77 | 1010.6 |
| 20260506090923 | 13 | 339 | 16.1 | 24.1 | 0.00 | 0.00 | 0.00 | 78 | 1010.6 |
| 20260506090420 | 13 | 55 | 6.4 | 29.0 | 0.00 | 0.00 | 0.00 | 77 | 1010.5 |
| 20260506085917 | 14 | 64 | 4.8 | 29.0 | 0.00 | 0.00 | 0.00 | 77 | 1010.5 |
| 20260506085414 | 14 | 33 | 6.4 | 12.9 | 0.00 | 0.00 | 0.00 | 78 | 1010.6 |
| 20260506084910 | 14 | 355 | 8.0 | 29.0 | 0.00 | 0.00 | 0.00 | 77 | 1010.5 |
| 20260506084407 | 14 | 51 | 8.0 | 24.1 | 0.00 | 0.00 | 0.00 | 78 | 1010.5 |
| 20260506083903 | 14 | 7 | 9.7 | 29.0 | 0.00 | 0.00 | 0.00 | 78 | 1010.3 |
| 20260506083401 | 14 | 23 | 3.2 | 16.1 | 0.00 | 0.00 | 0.00 | 78 | 1010.5 |
| 20260506082858 | 14 | 346 | 9.7 | 24.1 | 0.00 | 0.00 | 0.00 | 77 | 1010.4 |
| 20260506082355 | 14 | 22 | 12.9 | 20.9 | 0.00 | 0.00 | 0.00 | 78 | 1010.1 |
| 20260506081851 | 14 | 4 | 16.1 | 20.9 | 0.00 | 0.00 | 0.00 | 78 | 1010.2 |
| 20260506081349 | 14 | 356 | 9.7 | 16.1 | 0.00 | 0.00 | 0.00 | 79 | 1010.2 |
| 20260506080846 | 14 | 355 | 12.9 | 20.9 | 0.00 | 0.00 | 0.00 | 78 | 1010.3 |
| 20260506080343 | 14 | 41 | 9.7 | 33.8 | 0.00 | 0.00 | 0.00 | 78 | 1010.2 |
| 20260506073327 | 15 | 13 | 17.7 | 20.9 | 0.00 | 0.00 | 0.00 | 80 | 1010.0 |
| 20260506072824 | 15 | 47 | 11.3 | 24.1 | 0.00 | 0.00 | 0.00 | 81 | 1010.2 |
| 20260506072321 | 15 | 51 | 11.3 | 16.1 | 0.00 | 0.00 | 0.00 | 81 | 1009.8 |
| 20260506071819 | 14 | 28 | 6.4 | 33.8 | 0.00 | 0.00 | 0.00 | 81 | 1010.0 |
| 20260506071317 | 14 | 136 | 8.0 | 20.9 | 0.00 | 0.00 | 0.00 | 81 | 1009.8 |
| 20260506070813 | 15 | 0 | 9.7 | 12.9 | 0.00 | 0.00 | 0.00 | 81 | 1010.0 |
| 20260506070310 | 15 | 41 | 3.2 | 16.1 | 0.00 | 0.00 | 0.00 | 81 | 1009.9 |
| 20260506062248 | 15 | 1 | 12.9 | 20.9 | 0.00 | 0.00 | 0.00 | 80 | 1009.9 |
| 20260506061743 | 15 | 58 | 9.7 | 24.1 | 0.00 | 0.00 | 0.00 | 80 | 1009.5 |
| 20260506061241 | 15 | 326 | 9.7 | 37.0 | 0.00 | 0.00 | 0.00 | 79 | 1009.8 |
| 20260506060739 | 15 | 26 | 22.5 | 33.8 | 0.00 | 0.00 | 0.00 | 79 | 1009.9 |
| 20260506060236 | 15 | 22 | 19.3 | 29.0 | 0.00 | 0.00 | 0.00 | 79 | 1009.8 |
| 20260506051208 | 16 | 35 | 20.9 | 33.8 | 0.00 | 0.00 | 0.00 | 78 | 1009.9 |
| 20260506050707 | 16 | 38 | 16.1 | 33.8 | 0.00 | 0.00 | 0.00 | 77 | 1010.0 |
| 20260506050203 | 16 | 12 | 9.7 | 24.1 | 0.00 | 0.00 | 0.00 | 77 | 1009.8 |
| 20260506044654 | 17 | 39 | 11.3 | 33.8 | 0.00 | 0.00 | 0.00 | 77 | 1009.8 |
| 20260506044151 | 17 | 16 | 12.9 | 29.0 | 0.00 | 0.00 | 0.00 | 77 | 1009.5 |
| 20260506043648 | 17 | 300 | 1.6 | 33.8 | 0.00 | 0.00 | 0.00 | 77 | 1009.4 |
| 20260506043146 | 17 | 1 | 12.9 | 29.0 | 0.00 | 0.00 | 0.00 | 77 | 1009.5 |
| 20260506042645 | 17 | 110 | 9.7 | 24.1 | 0.00 | 0.00 | 0.00 | 77 | 1009.5 |
| 20260506042143 | 17 | 18 | 14.5 | 29.0 | 0.00 | 0.00 | 0.00 | 76 | 1009.4 |
| 20260506041641 | 17 | 51 | 22.5 | 29.0 | 0.00 | 0.00 | 0.00 | 76 | 1009.5 |
| 20260506041137 | 18 | 5 | 16.1 | 29.0 | 0.00 | 0.00 | 0.00 | 76 | 1009.6 |
| 20260506040635 | 18 | 31 | 20.9 | 29.0 | 0.00 | 0.00 | 0.00 | 75 | 1009.9 |
| 20260506040132 | 18 | 352 | 14.5 | 45.1 | 0.00 | 0.00 | 0.00 | 75 | 1010.0 |
| 20260506035629 | 18 | 353 | 19.3 | 37.0 | 0.00 | 0.00 | 0.00 | 74 | 1009.6 |
| 20260506035125 | 18 | 37 | 20.9 | 33.8 | 0.00 | 0.00 | 0.00 | 74 | 1009.6 |
| 20260506034623 | 18 | 56 | 16.1 | 29.0 | 0.00 | 0.00 | 0.00 | 73 | 1009.4 |
| 20260506034119 | 18 | 340 | 20.9 | 29.0 | 0.00 | 0.00 | 0.00 | 73 | 1009.4 |
| 20260506033617 | 18 | 316 | 11.3 | 24.1 | 0.00 | 0.00 | 0.00 | 73 | 1009.1 |
| 20260506033114 | 18 | 34 | 19.3 | 37.0 | 0.00 | 0.00 | 0.00 | 72 | 1008.9 |
| 20260506032611 | 18 | 13 | 12.9 | 33.8 | 0.00 | 0.00 | 0.00 | 72 | 1008.9 |
| 20260506032107 | 19 | 307 | 8.0 | 20.9 | 0.00 | 0.00 | 0.00 | 72 | 1008.8 |
| 20260506031605 | 19 | 38 | 11.3 | 45.1 | 0.00 | 0.00 | 0.00 | 72 | 1008.8 |
| 20260506031102 | 19 | 343 | 19.3 | 33.8 | 0.00 | 0.00 | 0.00 | 72 | 1008.6 |
| 20260506030600 | 19 | 53 | 3.2 | 12.9 | 0.00 | 0.00 | 0.00 | 72 | 1008.5 |
| 20260506030057 | 19 | 354 | 12.9 | 33.8 | 0.00 | 0.00 | 0.00 | 72 | 1008.4 |
| 20260506025554 | 19 | 88 | 8.0 | 33.8 | 0.00 | 0.00 | 0.00 | 72 | 1008.5 |
| 20260506025050 | 19 | 37 | 29.0 | 45.1 | 0.00 | 0.00 | 0.00 | 71 | 1008.3 |
| 20260506024547 | 19 | 75 | 11.3 | 16.1 | 0.00 | 0.00 | 0.00 | 71 | 1008.0 |
| 20260506024044 | 19 | 30 | 14.5 | 33.8 | 0.00 | 0.00 | 0.00 | 71 | 1007.9 |
| 20260506023539 | 19 | 53 | 20.9 | 29.0 | 0.00 | 0.00 | 0.00 | 70 | 1008.2 |
| 20260506023037 | 20 | 291 | 19.3 | 33.8 | 0.00 | 0.00 | 0.00 | 70 | 1007.9 |
| 20260506022535 | 20 | 17 | 24.1 | 33.8 | 0.00 | 0.00 | 0.00 | 69 | 1007.8 |
| 20260506022032 | 20 | 143 | 8.0 | 29.0 | 0.00 | 0.00 | 0.00 | 70 | 1007.7 |
| 20260506021529 | 20 | 336 | 12.9 | 37.0 | 0.00 | 0.00 | 0.00 | 70 | 1007.6 |
| 20260506021026 | 20 | 9 | 19.3 | 49.9 | 0.00 | 0.00 | 0.00 | 70 | 1007.9 |
| 20260506020524 | 20 | 35 | 8.0 | 20.9 | 0.00 | 0.00 | 0.00 | 71 | 1007.6 |
| 20260506020021 | 20 | 353 | 8.0 | 24.1 | 0.00 | 0.00 | 0.00 | 70 | 1007.5 |
| 20260506015519 | 21 | 49 | 12.9 | 33.8 | 0.00 | 0.00 | 0.00 | 70 | 1007.4 |
| 20260506015015 | 21 | 50 | 17.7 | 33.8 | 0.00 | 0.00 | 0.00 | 69 | 1007.1 |
| 20260506014513 | 21 | 18 | 20.9 | 37.0 | 0.00 | 0.00 | 0.00 | 69 | 1006.9 |
| 20260506014009 | 21 | 43 | 16.1 | 29.0 | 0.00 | 0.00 | 0.00 | 69 | 1007.0 |
| 20260506013507 | 21 | 9 | 11.3 | 24.1 | 0.00 | 0.00 | 0.00 | 69 | 1006.8 |
| 20260506013003 | 21 | 22 | 20.9 | 29.0 | 0.00 | 0.00 | 0.00 | 69 | 1006.8 |
| 20260506012459 | 21 | 4 | 22.5 | 33.8 | 0.00 | 0.00 | 0.00 | 69 | 1006.3 |
| 20260506011956 | 21 | 32 | 1.6 | 24.1 | 0.00 | 0.00 | 0.00 | 68 | 1006.4 |
| 20260506011454 | 22 | 28 | 8.0 | 24.1 | 0.00 | 0.00 | 0.00 | 68 | 1006.2 |
| 20260506010950 | 22 | 29 | 12.9 | 20.9 | 0.00 | 0.00 | 0.00 | 67 | 1006.1 |
| 20260506010449 | 22 | 26 | 17.7 | 24.1 | 0.00 | 0.00 | 0.00 | 67 | 1005.9 |
| 20260506005945 | 22 | 11 | 3.2 | 24.1 | 0.00 | 0.00 | 0.00 | 66 | 1006.0 |
| 20260506005443 | 22 | 17 | 24.1 | 29.0 | 0.00 | 0.00 | 0.00 | 66 | 1006.3 |
| 20260506004938 | 22 | 78 | 4.8 | 16.1 | 0.00 | 0.00 | 0.00 | 66 | 1005.9 |
| 20260506004436 | 22 | 30 | 17.7 | 24.1 | 0.00 | 0.00 | 0.00 | 65 | 1005.8 |
| 20260506003931 | 22 | 299 | 9.7 | 20.9 | 0.00 | 0.00 | 0.00 | 65 | 1005.8 |
| 20260506003429 | 22 | 102 | 8.0 | 24.1 | 0.00 | 0.00 | 0.00 | 64 | 1005.8 |
| 20260506002925 | 23 | 287 | 16.1 | 33.8 | 0.00 | 0.00 | 0.00 | 64 | 1005.5 |
| 20260506002421 | 23 | 298 | 6.4 | 12.9 | 0.00 | 0.00 | 0.00 | 64 | 1005.5 |
| 20260506001917 | 23 | 17 | 19.3 | 37.0 | 0.00 | 0.00 | 0.00 | 64 | 1005.6 |
| 20260506001414 | 23 | 49 | 11.3 | 20.9 | 0.00 | 0.00 | 0.00 | 64 | 1005.3 |
| 20260506000911 | 23 | 44 | 9.7 | 24.1 | 0.00 | 0.00 | 0.00 | 63 | 1005.3 |
| 20260506000409 | 23 | 348 | 12.9 | 16.1 | 0.00 | 0.00 | 0.00 | 62 | 1005.1 |
| 20260505235905 | 23 | 337 | 9.7 | 41.8 | 0.00 | 0.00 | 0.00 | 61 | 1005.3 |
| 20260505235403 | 24 | 322 | 20.9 | 29.0 | 0.00 | 0.00 | 0.00 | 60 | 1005.3 |
| 20260505234900 | 24 | 76 | 19.3 | 29.0 | 0.00 | 0.00 | 0.00 | 60 | 1005.3 |
| 20260505234358 | 24 | 334 | 19.3 | 41.8 | 0.00 | 0.00 | 0.00 | 59 | 1005.1 |
| 20260505233854 | 25 | 57 | 12.9 | 37.0 | 0.00 | 0.00 | 0.00 | 59 | 1005.3 |
| 20260505233352 | 25 | 275 | 19.3 | 66.0 | 0.00 | 0.00 | 0.00 | 59 | 1004.9 |
| 20260505232849 | 26 | 61 | 17.7 | 37.0 | 0.00 | 0.00 | 0.00 | 59 | 1004.8 |
| 20260505232347 | 26 | 228 | 17.7 | 24.1 | 0.00 | 0.00 | 0.00 | 59 | 1004.9 |
| 20260505231843 | 26 | 13 | 19.3 | 29.0 | 0.00 | 0.00 | 0.00 | 58 | 1005.0 |
| 20260505231341 | 26 | 346 | 35.4 | 53.1 | 0.00 | 0.00 | 0.00 | 59 | 1004.9 |
| 20260505230839 | 26 | 332 | 11.3 | 24.1 | 0.00 | 0.00 | 0.00 | 58 | 1004.7 |
| 20260505230336 | 26 | 303 | 16.1 | 33.8 | 0.00 | 0.00 | 0.00 | 58 | 1004.8 |
| 20260505225833 | 27 | 318 | 16.1 | 37.0 | 0.00 | 0.00 | 0.00 | 59 | 1004.8 |
| 20260505225330 | 27 | 334 | 24.1 | 37.0 | 0.00 | 0.00 | 0.00 | 59 | 1004.7 |
| 20260505224825 | 27 | 20 | 24.1 | 45.1 | 0.00 | 0.00 | 0.00 | 59 | 1004.7 |
| 20260505224323 | 29 | 352 | 24.1 | 29.0 | 0.00 | 0.00 | 0.00 | 56 | 1004.4 |
| 20260505223820 | 29 | 335 | 16.1 | 37.0 | 0.00 | 0.00 | 0.00 | 53 | 1004.3 |
| 20260505223317 | 30 | 47 | 6.4 | 37.0 | 0.00 | 0.00 | 0.00 | 51 | 1004.2 |
| 20260505222812 | 29 | 65 | 9.7 | 33.8 | 0.00 | 0.00 | 0.00 | 50 | 1004.3 |
| 20260505222309 | 29 | 330 | 11.3 | 29.0 | 0.00 | 0.00 | 0.00 | 49 | 1004.2 |
| 20260505221806 | 28 | 63 | 16.1 | 20.9 | 0.00 | 0.00 | 0.00 | 49 | 1004.1 |
| 20260505221303 | 29 | 263 | 11.3 | 29.0 | 0.00 | 0.00 | 0.00 | 48 | 1004.2 |
| 20260505220800 | 30 | 323 | 14.5 | 29.0 | 0.00 | 0.00 | 0.00 | 47 | 1004.0 |
| 20260505220257 | 30 | 343 | 14.5 | 20.9 | 0.00 | 0.00 | 0.00 | 46 | 1004.0 |
| 20260505215755 | 30 | 208 | 6.4 | 24.1 | 0.00 | 0.00 | 0.00 | 46 | 1003.8 |
| 20260505215253 | 30 | 344 | 16.1 | 37.0 | 0.00 | 0.00 | 0.00 | 46 | 1004.0 |
| 20260505214750 | 31 | 321 | 20.9 | 37.0 | 0.00 | 0.00 | 0.00 | 45 | 1004.0 |
| 20260505214247 | 33 | 346 | 25.7 | 41.8 | 0.00 | 0.00 | 0.00 | 42 | 1003.9 |
| 20260505213744 | 35 | 258 | 12.9 | 20.9 | 0.00 | 0.00 | 0.00 | 42 | 1003.9 |
| 20260505213242 | 34 | 344 | 6.4 | 37.0 | 0.00 | 0.00 | 0.00 | 44 | 1003.9 |
| 20260505212737 | 33 | 249 | 16.1 | 24.1 | 0.00 | 0.00 | 0.00 | 44 | 1003.9 |
| 20260505212235 | 33 | 245 | 6.4 | 20.9 | 0.00 | 0.00 | 0.00 | 44 | 1003.9 |
| 20260505211732 | 33 | 248 | 6.4 | 16.1 | 0.00 | 0.00 | 0.00 | 43 | 1004.1 |
| 20260505211229 | 32 | 204 | 1.6 | 24.1 | 0.00 | 0.00 | 0.00 | 46 | 1003.9 |
| 20260505210725 | 32 | 179 | 20.9 | 29.0 | 0.00 | 0.00 | 0.00 | 44 | 1004.1 |
| 20260505210222 | 33 | 194 | 6.4 | 8.0 | 0.00 | 0.00 | 0.00 | 45 | 1004.2 |
| 20260505205720 | 33 | 226 | 11.3 | 16.1 | 0.00 | 0.00 | 0.00 | 44 | 1004.3 |
| 20260505205218 | 33 | 237 | 4.8 | 24.1 | 0.00 | 0.00 | 0.00 | 44 | 1004.5 |
| 20260505204714 | 33 | 190 | 19.3 | 24.1 | 0.00 | 0.00 | 0.00 | 43 | 1004.4 |
| 20260505204212 | 32 | 260 | 11.3 | 20.9 | 0.00 | 0.00 | 0.00 | 45 | 1004.6 |
| 20260505203709 | 32 | 212 | 20.9 | 29.0 | 0.00 | 0.00 | 0.00 | 45 | 1004.5 |
| 20260505203206 | 32 | 264 | 11.3 | 16.1 | 0.00 | 0.00 | 0.00 | 45 | 1004.5 |
| 20260505202701 | 33 | 230 | 14.5 | 24.1 | 0.00 | 0.00 | 0.00 | 45 | 1004.2 |
| 20260505202158 | 32 | 276 | 20.9 | 45.1 | 0.00 | 0.00 | 0.00 | 47 | 1004.6 |
| 20260505201654 | 33 | 198 | 16.1 | 37.0 | 0.00 | 0.00 | 0.00 | 48 | 1004.5 |
| 20260505201153 | 32 | 253 | 11.3 | 20.9 | 0.00 | 0.00 | 0.00 | 46 | 1004.6 |
| 20260505200650 | 33 | 273 | 17.7 | 41.8 | 0.00 | 0.00 | 0.00 | 46 | 1004.7 |
| 20260505200147 | 32 | 198 | 14.5 | 29.0 | 0.00 | 0.00 | 0.00 | 47 | 1004.9 |
| 20260505195643 | 32 | 325 | 12.9 | 24.1 | 0.00 | 0.00 | 0.00 | 48 | 1004.9 |
| 20260505195140 | 32 | 217 | 4.8 | 24.1 | 0.00 | 0.00 | 0.00 | 54 | 1004.9 |
| 20260505194637 | 31 | 229 | 16.1 | 37.0 | 0.00 | 0.00 | 0.00 | 51 | 1004.8 |
| 20260505194133 | 32 | 271 | 12.9 | 20.9 | 0.00 | 0.00 | 0.00 | 50 | 1004.8 |
| 20260505193630 | 32 | 213 | 11.3 | 24.1 | 0.00 | 0.00 | 0.00 | 52 | 1004.8 |
| 20260505193127 | 31 | 270 | 19.3 | 45.1 | 0.00 | 0.00 | 0.00 | 52 | 1005.0 |
| 20260505192626 | 31 | 109 | 1.6 | 33.8 | 0.00 | 0.00 | 0.00 | 52 | 1004.8 |
| 20260505192123 | 31 | 214 | 19.3 | 29.0 | 0.00 | 0.00 | 0.00 | 53 | 1004.8 |
| 20260505191621 | 31 | 151 | 12.9 | 37.0 | 0.00 | 0.00 | 0.00 | 56 | 1004.9 |
| 20260505191119 | 31 | 172 | 11.3 | 37.0 | 0.00 | 0.00 | 0.00 | 56 | 1004.8 |
| 20260505190614 | 31 | 216 | 17.7 | 33.8 | 0.00 | 0.00 | 0.00 | 54 | 1004.6 |
| 20260505190109 | 31 | 171 | 12.9 | 24.1 | 0.00 | 0.00 | 0.00 | 57 | 1004.7 |
| 20260505185607 | 31 | 218 | 8.0 | 29.0 | 0.00 | 0.00 | 0.00 | 57 | 1004.7 |
| 20260505185103 | 31 | 223 | 16.1 | 37.0 | 0.00 | 0.00 | 0.00 | 55 | 1004.8 |
| 20260505184559 | 31 | 184 | 17.7 | 37.0 | 0.00 | 0.00 | 0.00 | 55 | 1004.8 |
| 20260505184056 | 30 | 287 | 17.7 | 29.0 | 0.00 | 0.00 | 0.00 | 56 | 1004.8 |
| 20260505183553 | 30 | 252 | 20.9 | 41.8 | 0.00 | 0.00 | 0.00 | 58 | 1004.8 |
| 20260505183051 | 30 | 270 | 24.1 | 33.8 | 0.00 | 0.00 | 0.00 | 57 | 1004.9 |
| 20260505182547 | 30 | 229 | 14.5 | 37.0 | 0.00 | 0.00 | 0.00 | 59 | 1004.8 |
| 20260505182044 | 30 | 256 | 9.7 | 20.9 | 0.00 | 0.00 | 0.00 | 59 | 1005.1 |
| 20260505181540 | 29 | 238 | 24.1 | 53.1 | 0.00 | 0.00 | 0.00 | 60 | 1005.2 |
| 20260505181038 | 29 | 157 | 16.1 | 29.0 | 0.00 | 0.00 | 0.00 | 61 | 1005.0 |
| 20260505180533 | 28 | 212 | 17.7 | 49.9 | 0.00 | 0.00 | 0.00 | 62 | 1005.0 |
| 20260505180032 | 28 | 175 | 20.9 | 33.8 | 0.00 | 0.00 | 0.00 | 62 | 1005.2 |
| 20260505175531 | 28 | 85 | 6.4 | 41.8 | 0.00 | 0.00 | 0.00 | 62 | 1005.3 |
| 20260505175029 | 28 | 230 | 24.1 | 37.0 | 0.00 | 0.00 | 0.00 | 64 | 1005.2 |
| 20260505174526 | 28 | 241 | 12.9 | 29.0 | 0.00 | 0.00 | 0.00 | 64 | 1005.2 |
| 20260505174022 | 28 | 115 | 6.4 | 24.1 | 0.00 | 0.00 | 0.00 | 64 | 1005.2 |
| 20260505173519 | 28 | 202 | 9.7 | 29.0 | 0.00 | 0.00 | 0.00 | 64 | 1005.5 |
| 20260505173015 | 28 | 259 | 16.1 | 49.9 | 0.00 | 0.00 | 0.00 | 64 | 1005.5 |
| 20260505172514 | 28 | 180 | 1.6 | 20.9 | 0.00 | 0.00 | 0.00 | 67 | 1005.1 |
| 20260505172009 | 28 | 293 | 8.0 | 33.8 | 0.00 | 0.00 | 0.00 | 67 | 1005.6 |
| 20260505171505 | 27 | 334 | 8.0 | 24.1 | 0.00 | 0.00 | 0.00 | 67 | 1005.6 |
| 20260505171002 | 27 | 210 | 8.0 | 33.8 | 0.00 | 0.00 | 0.00 | 67 | 1005.5 |
| 20260505170458 | 27 | 210 | 9.7 | 37.0 | 0.00 | 0.00 | 0.00 | 67 | 1005.2 |
| 20260505165954 | 27 | 236 | 14.5 | 37.0 | 0.00 | 0.00 | 0.00 | 67 | 1005.2 |
| 20260505165450 | 27 | 242 | 14.5 | 29.0 | 0.00 | 0.00 | 0.00 | 67 | 1005.3 |
| 20260505164945 | 27 | 167 | 11.3 | 37.0 | 0.00 | 0.00 | 0.00 | 66 | 1005.1 |
| 20260505164442 | 27 | 130 | 8.0 | 24.1 | 0.00 | 0.00 | 0.00 | 66 | 1005.3 |
| 20260505163940 | 27 | 196 | 14.5 | 49.9 | 0.00 | 0.00 | 0.00 | 67 | 1005.3 |
| 20260505163439 | 27 | 185 | 8.0 | 45.1 | 0.00 | 0.00 | 0.00 | 67 | 1005.3 |
| 20260505162937 | 27 | 200 | 33.8 | 45.1 | 0.00 | 0.00 | 0.00 | 67 | 1005.1 |
| 20260505162433 | 27 | 340 | 17.7 | 29.0 | 0.00 | 0.00 | 0.00 | 67 | 1005.1 |
| 20260505161930 | 27 | 137 | 12.9 | 61.2 | 0.00 | 0.00 | 0.00 | 69 | 1005.1 |
| 20260505161426 | 27 | 187 | 19.3 | 49.9 | 0.00 | 0.00 | 0.00 | 68 | 1004.8 |
| 20260505160924 | 26 | 219 | 12.9 | 41.8 | 0.00 | 0.00 | 0.00 | 69 | 1005.0 |
| 20260505160422 | 26 | 267 | 20.9 | 37.0 | 0.00 | 0.00 | 0.00 | 71 | 1004.8 |
| 20260505152858 | 25 | 191 | 16.1 | 20.9 | 0.00 | 0.00 | 0.00 | 76 | 1004.6 |
| 20260505152355 | 25 | 170 | 8.0 | 45.1 | 0.00 | 0.00 | 0.00 | 75 | 1004.6 |
| 20260505151849 | 25 | 116 | 9.7 | 24.1 | 0.00 | 0.00 | 0.00 | 75 | 1004.9 |
| 20260505151346 | 25 | 137 | 20.9 | 45.1 | 0.00 | 0.00 | 0.00 | 75 | 1004.7 |
| 20260505150843 | 25 | 196 | 17.7 | 37.0 | 0.00 | 0.00 | 0.00 | 75 | 1004.9 |
| 20260505150341 | 24 | 102 | 11.3 | 49.9 | 0.00 | 0.00 | 0.00 | 77 | 1004.9 |
| 20260505140310 | 22 | 28 | 11.3 | 29.0 | 0.00 | 0.00 | 0.00 | 82 | 1004.6 |
| 20260505130234 | 21 | 185 | 3.2 | 37.0 | 0.00 | 0.00 | 0.00 | 86 | 1004.4 |
| 20260505124724 | 21 | 129 | 17.7 | 33.8 | 0.00 | 0.00 | 0.00 | 87 | 1004.5 |
| 20260505124221 | 21 | 156 | 9.7 | 37.0 | 0.00 | 0.00 | 0.00 | 87 | 1004.2 |
| 20260505123717 | 21 | 125 | 8.0 | 16.1 | 0.00 | 0.00 | 0.00 | 87 | 1004.2 |
| 20260505123214 | 21 | 191 | 6.4 | 16.1 | 0.00 | 0.00 | 0.00 | 87 | 1004.1 |
| 20260505122710 | 21 | 91 | 9.7 | 29.0 | 0.00 | 0.00 | 0.00 | 87 | 1004.0 |
| 20260505122208 | 21 | 139 | 12.9 | 20.9 | 0.00 | 0.00 | 0.00 | 87 | 1004.0 |
| 20260505121704 | 21 | 241 | 8.0 | 20.9 | 0.00 | 0.00 | 0.00 | 88 | 1004.0 |
| 20260505121201 | 21 | 179 | 1.6 | 41.8 | 0.00 | 0.00 | 0.00 | 87 | 1004.1 |
| 20260505120657 | 20 | 222 | 14.5 | 29.0 | 0.00 | 0.00 | 0.00 | 87 | 1004.0 |
| 20260505120153 | 20 | 178 | 3.2 | 20.9 | 0.00 | 0.00 | 0.00 | 87 | 1004.2 |
| 20260505115646 | 20 | 199 | 12.9 | 33.8 | 0.00 | 0.00 | 0.00 | 88 | 1003.8 |
| 20260505115145 | 20 | 238 | 22.5 | 37.0 | 0.00 | 0.00 | 0.00 | 88 | 1003.9 |
| 20260505114642 | 20 | 195 | 19.3 | 29.0 | 0.00 | 0.00 | 0.00 | 88 | 1003.4 |
| 20260505114138 | 20 | 182 | 9.7 | 20.9 | 0.00 | 0.00 | 0.00 | 88 | 1003.7 |
| 20260505113634 | 20 | 152 | 11.3 | 29.0 | 0.00 | 0.00 | 0.00 | 88 | 1003.8 |
| 20260505113131 | 20 | 201 | 6.4 | 20.9 | 0.00 | 0.00 | 0.00 | 88 | 1003.8 |
| 20260505112627 | 20 | 173 | 9.7 | 49.9 | 0.00 | 0.00 | 0.00 | 88 | 1003.6 |
| 20260505112126 | 20 | 128 | 6.4 | 24.1 | 0.00 | 0.00 | 0.00 | 88 | 1003.7 |
| 20260505111625 | 20 | 194 | 4.8 | 33.8 | 0.00 | 0.00 | 0.00 | 88 | 1003.7 |
| 20260505111121 | 20 | 123 | 12.9 | 29.0 | 0.00 | 0.00 | 0.00 | 88 | 1003.6 |
| 20260505110618 | 20 | 109 | 6.4 | 29.0 | 0.00 | 0.00 | 0.00 | 88 | 1003.6 |
| 20260505110115 | 20 | 187 | 8.0 | 16.1 | 0.00 | 0.00 | 0.00 | 88 | 1003.6 |
| 20260505102050 | 20 | 163 | 1.6 | 16.1 | 0.00 | 0.00 | 0.00 | 88 | 1003.7 |
| 20260505101549 | 20 | 231 | 12.9 | 37.0 | 0.00 | 0.00 | 0.00 | 87 | 1003.6 |
| 20260505101045 | 20 | 219 | 37.0 | 45.1 | 0.00 | 0.00 | 0.00 | 88 | 1003.7 |
| 20260505100542 | 20 | 227 | 9.7 | 24.1 | 0.00 | 0.00 | 0.00 | 88 | 1003.7 |
| 20260505100039 | 20 | 209 | 3.2 | 12.9 | 0.00 | 0.00 | 0.00 | 87 | 1003.7 |
| 20260505095535 | 20 | 147 | 17.7 | 33.8 | 0.00 | 0.00 | 0.00 | 87 | 1003.5 |
| 20260505095031 | 20 | 128 | 0.0 | 57.9 | 0.00 | 0.00 | 0.00 | 87 | 1003.4 |
| 20260505094528 | 20 | 130 | 4.8 | 20.9 | 0.00 | 0.00 | 0.00 | 87 | 1003.5 |
| 20260505094024 | 20 | 138 | 8.0 | 24.1 | 0.00 | 0.00 | 0.00 | 87 | 1003.8 |
| 20260505093521 | 20 | 93 | 8.0 | 20.9 | 0.00 | 0.00 | 0.00 | 87 | 1003.8 |
| 20260505093018 | 20 | 234 | 9.7 | 16.1 | 0.00 | 0.00 | 0.00 | 86 | 1003.8 |